Location: Kellogg
(38.0159°N, 90.0546°W)
Time: 21:57:55
(UTC+00:00)

Vanguard 1 - Pass Details

Date: 21 September 2024
Orbit: 648 x 3825 km, 34.3° (Epoch: 12 October)

Event Time Altitude Azimuth Distance (km) Brightness Sun altitude
Rises 21:56:23 0° 279° (W) 4,828 14.6 22.7°
Reaches altitude 10° 22:00:36 10° 270° (W) 3,333 14.4 21.9°
Maximum altitude 22:07:00 30° 212° (SSW) 1,602 12.2 20.7°
Drops below altitude 10° 22:11:25 10° 151° (SSE) 2,246 11.9 19.9°
Sets 22:13:42 0° 139° (SE) 3,032 12.4 19.5°
